sat.trackr.live / text

‹ back to catalog

STARLINK-36490

NORAD 67305 · 2026-002A

PAYLOAD ACTIVE UNKNOWN

§ Identity

Operator
Country
US
Launch date
2026-01-04
Launch site
AFETR
Launch vehicle
Mass (kg)
RCS (m²)

Purposes: comms

External: N2YO · Heavens-Above · Gunter

§ Orbital elements

Epoch: 2026-05-25T00:06:25.686144Z

Period
94.27 min
Inclination
43.0002°
Eccentricity
0.0001282
Mean motion
15.27585069 rev/d
Perigee alt
482.2 km
Apogee alt
483.9 km
Semi-major
6,861.2 km
B*
4.3313e-4
RAAN
253.9908°
Arg perigee
277.3801°
Mean anomaly
82.6905°
Rev number
2,281

§ Raw data

STARLINK-364901 67305U 26002A   26145.00446396  .00011677  00000+0  43313-3 0  99992 67305  43.0002 253.9908 0001282 277.3801  82.6905 15.27585069 22810

JSON: /api/v1/satellites/67305 · /tle

For live sub-satellite position, see the globe view (requires WebGL).

§ Visibility from observer

Set your observer location to see the next 7 days of passes ≥ 10°. The values pass through the URL so the page stays shareable.

No JS? Fill the form by hand. The geolocation button needs JavaScript.